Total_Precipitation_Accumulation
1.04 1.04 0.99 1.07 1.07 1.05 1.11 1.09 0.96 0.96 0.95 0.85 0.83 0.83 0.88 0.91 1.08 1.20 1.47 2.00 2.67 3.33 3.51 3.24 2.76 2.43 2.33 2.29 2.21 2.16 2.10 2.12 2.28 2.47 2.37 2.29 2.36 2.39 2.33 2.62 2.87 3.19 3.34
0.87 1.00 1.02 1.10 1.04 1.07 1.14 1.03 1.00 1.03 1.03 0.92 0.87 0.88 0.87 0.92 1.01 1.14 1.29 1.61 2.02 2.67 3.35 3.54 3.19 2.80 2.54 2.51 2.54 2.55 2.32 2.16 2.18 2.40 2.45 2.29 2.28 2.21 2.19 2.37 2.69 2.95 3.37
0.86 0.97 1.05 1.07 1.05 1.07 1.07 1.10 1.12 1.09 1.01 0.94 0.96 0.93 0.88 0.89 1.05 1.16 1.23 1.42 1.49 1.64 2.34 3.13 3.44 3.29 3.02 3.00 2.92 2.75 2.55 2.36 2.19 2.26 2.38 2.29 2.22 2.04 2.12 2.20 2.31 2.45 2.97
0.88 1.11 1.17 1.06 1.11 1.20 1.24 1.28 1.23 1.17 1.10 1.10 1.14 1.10 1.01 1.03 1.18 1.25 1.21 1.20 1.26 1.20 1.45 1.96 2.46 2.85 3.17 3.31 3.29 3.08 2.81 2.57 2.26 2.20 2.22 2.21 2.11 1.92 1.96 2.08 2.15 2.28 2.52
1.07 1.28 1.35 1.22 1.19 1.35 1.35 1.24 1.29 1.36 1.34 1.38 1.28 1.30 1.27 1.27 1.25 1.18 1.16 1.22 1.27 1.28 1.36 1.32 1.56 1.93 2.61 3.17 3.48 3.66 3.31 3.04 2.69 2.46 2.35 2.16 2.02 1.91 1.89 1.93 2.00 2.14 2.23
1.25 1.45 1.59 1.52 1.45 1.59 1.63 1.52 1.64 1.73 1.66 1.72 1.57 1.48 1.42 1.39 1.33 1.31 1.28 1.33 1.45 1.37 1.44 1.39 1.37 1.24 1.63 2.36 3.01 3.51 3.55 3.39 3.08 2.68 2.50 2.13 2.02 1.89 1.81 1.82 1.88 2.03 2.17
1.66 1.80 1.79 2.00 2.05 2.03 2.07 2.05 2.23 2.29 2.04 1.91 2.28 2.22 1.79 1.45 1.31 1.39 1.48 1.52 1.63 1.66 1.65 1.62 1.57 1.35 1.27 1.58 2.21 3.13 3.38 3.29 3.11 2.82 2.70 2.43 2.13 1.93 1.84 1.84 1.89 1.88 2.03
2.03 1.95 2.04 2.29 2.32 2.43 2.53 2.40 2.59 2.73 2.42 2.14 2.62 3.12 2.70 2.20 1.53 1.27 1.38 1.55 1.74 1.77 1.71 1.59 1.60 1.58 1.51 1.58 1.70 2.34 2.93 3.27 3.23 3.05 2.88 2.78 2.35 2.10 1.93 1.90 1.91 1.89 1.87
2.47 2.35 2.30 2.45 2.48 2.56 2.77 2.80 2.76 2.93 2.91 2.56 2.52 3.13 3.15 2.75 2.26 1.67 1.48 1.54 1.74 1.86 1.90 1.86 1.70 1.71 1.63 1.71 1.83 1.71 1.95 2.58 3.08 3.07 2.95 2.88 2.64 2.33 2.03 1.96 1.96 1.89 1.74
2.63 2.56 2.52 2.60 2.62 2.61 2.70 2.75 2.76 3.06 3.32 3.10 2.79 2.55 2.52 2.56 2.60 2.23 1.81 1.64 1.76 1.86 2.00 1.92 1.95 2.00 1.96 1.92 1.92 1.65 1.50 1.71 2.24 2.70 2.87 2.94 2.80 2.52 2.23 2.11 2.15 2.01 1.89
2.42 2.30 2.40 2.56 2.58 2.60 2.60 2.76 2.89 3.18 3.24 3.18 3.07 2.92 2.72 2.54 2.16 2.25 2.22 1.98 1.91 1.82 1.92 2.08 2.16 2.21 2.15 2.27 2.36 1.85 1.48 1.41 1.74 2.22 2.67 2.91 3.00 2.94 2.66 2.37 2.27 2.25 2.22
2.33 2.18 2.24 2.32 2.41 2.47 2.44 2.49 2.68 2.87 3.13 3.27 3.20 3.02 3.00 2.92 2.70 2.49 2.18 2.06 2.18 2.05 1.92 1.92 2.01 2.09 2.25 2.37 2.27 2.04 1.55 1.39 1.52 1.66 1.97 2.47 2.85 3.10 3.05 2.88 2.68 2.54 2.55
2.29 2.27 2.19 2.20 2.24 2.27 2.35 2.54 2.55 2.63 2.84 3.05 3.08 3.01 3.00 2.86 2.79 2.75 2.47 2.12 2.07 2.02 1.94 1.90 1.88 1.94 2.02 2.13 2.16 2.07 1.63 1.52 1.44 1.40 1.41 1.57 1.99 2.52 2.97 3.17 3.13 2.91 2.90
1.87 1.86 1.92 2.02 2.13 2.19 2.25 2.41 2.50 2.51 2.57 2.64 2.67 2.86 2.97 2.86 2.66 2.56 2.54 2.59 2.35 2.13 1.97 1.90 1.84 1.82 1.87 1.88 2.01 2.02 1.57 1.46 1.37 1.29 1.22 1.13 1.25 1.57 2.07 2.49 2.62 2.70 2.92
1.46 1.48 1.53 1.68 1.87 2.00 2.03 2.15 2.33 2.32 2.39 2.40 2.47 2.55 2.57 2.65 2.54 2.34 2.29 2.40 2.54 2.35 2.18 2.01 1.83 1.64 1.67 1.66 1.75 1.52 1.45 1.45 1.37 1.26 1.14 1.04 0.99 1.10 1.39 1.75 1.93 1.86 1.92
1.38 1.45 1.49 1.51 1.62 1.70 1.80 1.95 2.08 2.17 2.22 2.19 2.18 2.25 2.31 2.36 2.37 2.32 2.29 2.31 2.33 2.32 2.23 2.00 1.71 1.47 1.51 1.58 1.75 1.49 1.54 1.72 1.58 1.36 1.11 1.05 1.01 0.99 1.07 1.21 1.32 1.25 1.20
1.45 1.47 1.51 1.54 1.54 1.59 1.63 1.72 1.86 2.01 2.01 2.02 1.89 1.92 2.05 2.14 2.34 2.37 2.33 2.29 2.27 2.20 2.10 2.00 1.74 1.54 1.50 1.60 1.67 1.55 1.57 1.63 1.53 1.43 1.21 1.10 1.00 1.04 1.07 1.10 1.18 1.11 0.97
1.33 1.38 1.48 1.43 1.41 1.45 1.52 1.62 1.71 1.75 1.80 1.77 1.67 1.70 1.82 1.90 2.06 2.17 2.27 2.17 2.17 2.15 2.14 2.11 1.88 1.68 1.59 1.60 1.68 1.63 1.52 1.50 1.50 1.55 1.35 1.22 1.10 1.02 1.08 1.07 1.17 1.23 1.13
1.28 1.36 1.47 1.56 1.46 1.37 1.44 1.50 1.54 1.54 1.52 1.45 1.43 1.50 1.58 1.65 1.78 1.89 1.99 2.08 2.10 2.05 2.14 2.12 1.92 1.73 1.57 1.51 1.57 1.53 1.48 1.54 1.44 1.52 1.44 1.31 1.24 1.13 1.12 1.12 1.11 1.21 1.22
1.12 1.17 1.30 1.41 1.44 1.38 1.33 1.31 1.29 1.42 1.40 1.28 1.18 1.18 1.22 1.27 1.40 1.54 1.65 1.81 1.97 2.10 2.17 2.19 2.04 1.78 1.58 1.51 1.58 1.63 1.62 1.53 1.53 1.43 1.44 1.41 1.38 1.32 1.22 1.20 1.11 1.10 1.18
0.99 1.04 1.21 1.37 1.43 1.41 1.41 1.38 1.27 1.28 1.33 1.32 1.24 1.11 1.01 1.04 1.17 1.26 1.35 1.61 1.81 1.98 2.10 2.16 2.06 1.87 1.69 1.59 1.55 1.55 1.63 1.71 1.71 1.55 1.50 1.41 1.36 1.20 1.08 1.11 1.10 1.05 1.03
0.93 0.94 1.03 1.17 1.32 1.29 1.47 1.50 1.39 1.24 1.23 1.24 1.23 1.19 1.16 1.13 1.03 0.98 1.06 1.23 1.48 1.68 1.85 1.95 1.97 1.79 1.61 1.57 1.61 1.62 1.62 1.68 1.73 1.59 1.53 1.60 1.53 1.39 1.22 1.10 1.16 1.09 1.03
0.90 0.90 0.97 1.11 1.26 1.45 1.52 1.34 1.40 1.33 1.25 1.23 1.20 1.19 1.21 1.18 1.24 1.09 1.04 1.03 1.06 1.25 1.51 1.70 1.71 1.62 1.67 1.61 1.57 1.52 1.51 1.51 1.54 1.56 1.56 1.59 1.57 1.44 1.26 1.20 1.28 1.21 1.15
0.89 0.91 0.97 1.06 1.14 1.39 1.48 1.29 1.47 1.47 1.41 1.36 1.30 1.31 1.36 1.38 1.31 1.42 1.37 1.23 1.11 1.10 1.23 1.18 1.25 1.52 1.64 1.67 1.66 1.66 1.69 1.60 1.53 1.53 1.47 1.49 1.41 1.35 1.23 1.15 1.21 1.15 1.09
0.87 0.90 0.89 0.91 0.93 1.05 1.20 1.14 1.28 1.37 1.48 1.46 1.33 1.31 1.34 1.33 1.56 1.64 1.49 1.40 1.28 1.19 1.37 1.42 1.43 1.49 1.57 1.57 1.53 1.58 1.63 1.58 1.51 1.47 1.37 1.28 1.22 1.30 1.34 1.24 1.20 1.26 1.21
0.94 0.87 0.83 0.81 0.83 0.86 1.06 0.94 1.06 1.14 1.31 1.45 1.41 1.34 1.51 1.44 1.46 1.43 1.32 1.46 1.40 1.27 1.19 1.16 1.17 1.24 1.27 1.32 1.38 1.35 1.47 1.51 1.43 1.45 1.32 1.26 1.22 1.29 1.35 1.25 1.13 1.11 1.17